Regional Weather Roundup
Issued by NWS

Home | Current Version | Previous Version | Text Only | Print | Product List | Glossary On
Versions: 1 2 3 4 5 6 7 8 9 10 11 12 13 14 15 16 17 18 19 20 21 22 23 24 25 26 27 28 29 30 31 32 33 34 35 36 37 38 39 40 41 42 43 44 45 46 47 48 49 50
000
ASUS43 KMKX 201900
RWRWI

WISCONSIN REGIONAL WEATHER ROUNDUP
NATIONAL WEATHER SERVICE MILWAUKEE/SULLIVAN WI
200 PM CDT SUN APR 20 2014

NOTE: "FAIR" INDICATES FEW OR NO CLOUDS BELOW 12,000 FEET WITH NO
SIGNIFICANT WEATHER AND/OR OBSTRUCTIONS TO VISIBILITY.

WIZ001-002-006>008-014>016-023>028-202000-
NORTHWEST WISCONSIN

CITY           SKY/WX    TMP DP  RH WIND       PRES   REMARKS
SUPERIOR ARPT  SUNNY     61  37  40 CALM      30.02F
ASHLAND        SUNNY     56  42  59 N9        30.02F
HAYWARD        SUNNY     69  33  26 W6        30.01F
SIREN          SUNNY     66  35  31 W3        30.02F
RICE LAKE      MOSUNNY   70  37  30 CALM      30.03S
LADYSMITH      MOSUNNY   69  48  48 S6        30.04F
EAU CLAIRE     CLOUDY    66  50  56 SW7       30.01F
MENOMONIE      MOCLDY    65  50  58 E3        30.02F
NEW RICHMOND   MOSUNNY   69  47  45 CALM      30.01F
OSCEOLA        SUNNY     71  37  27 CALM      30.03F
$$

WIZ003>005-009-010-017-018-202000-
NORTH CENTRAL WISCONSIN

CITY           SKY/WX    TMP DP  RH WIND       PRES   REMARKS
WOODRUFF       SUNNY     72  42  34 NW3       30.02F
RHINELANDER    CLOUDY    61  47  59 SW9       30.05S
EAGLE RIVER    MOSUNNY   65  37  34 SW5       30.02F
LAND O LAKES   MOSUNNY   65  33  29 SW5       30.02F
PHILLIPS       SUNNY     67  40  38 SW3       30.02S
TOMAHAWK       CLOUDY    62  48  61 CALM      30.04F
MEDFORD        CLOUDY    59  52  77 S9        30.05S
MERRILL        CLOUDY    61  51  69 SW3       30.05S
$$

WIZ029-030-035-036-043>047-202000-
CENTRAL WISCONSIN

CITY           SKY/WX    TMP DP  RH WIND       PRES   REMARKS
WAUSAU         CLOUDY    60  49  66 S9        30.04F
MOSINEE        CLOUDY    55  52  88 S13       30.08F
MARSHFIELD     CLOUDY    56  52  86 S6        30.06F
STEVENS POINT  CLOUDY    52  47  84 S6        30.09F
WAUPACA        DRIZZLE   54  48  82 S6        30.11S
WAUTOMA        NOT AVBL
WISC RAPIDS    CLOUDY    55  51  86 S3        30.08F
CAMP DOUGLAS   NOT AVBL
$$

WIZ011>013-019>022-031-037>040-048>050-202000-
NORTHEAST WISCONSIN

CITY           SKY/WX    TMP DP  RH WIND       PRES   REMARKS
ANTIGO         CLOUDY    57  51  78 SW12      30.06F
STURGEON BAY   CLOUDY    41  37  87 S7        30.11F
GREEN BAY      LGT RAIN  53  48  83 S6        30.10F
MANITOWOC      NOT AVBL
APPLETON       DRIZZLE   55  45  67 SW6       30.11F
CLINTONVILLE   CLOUDY    52  50  93 SW5       30.09F
OSHKOSH        CLOUDY    65  43  44 SW5       30.10F
$$

WIZ032>034-041-042-053>061-202000-
SOUTHWEST WISCONSIN

CITY           SKY/WX    TMP DP  RH WIND       PRES   REMARKS
LA CROSSE      LGT RAIN  55  52  89 SE8       30.04F
SPARTA         LGT RAIN  55  53  93 CALM      30.08F
VIROQUA        CLOUDY    55  52  92 SE12      30.05F
BOSCOBEL       CLOUDY    69  49  48 SW6       30.07F
PRAIRIE DU CHI CLOUDY    63  50  62 CALM      30.07F
PLATTEVILLE    FAIR      77  43  30 S7G22     30.07F
$$

WIZ056-057-062-063-064-067-068-202000-
SOUTH CENTRAL WISCONSIN

CITY           SKY/WX    TMP DP  RH WIND       PRES   REMARKS
BARABOO/DELLS  LGT RAIN  64  46  52 S8        30.08F
LONE ROCK      NOT AVBL
WATERTOWN      PTSUNNY   74  44  34 SW12G17   30.09F
MADISON        PTSUNNY   75  43  31 VRB5      30.07F
MIDDLETON      FAIR      76  38  25 SW3       30.08F
MONROE         MOSUNNY   74  43  32 S9G17     30.08F
JANESVILLE     SUNNY     79  39  24 SW12G17   30.08F
$$

WIZ051-052-058>065-066-070>072-202000-
SOUTHEAST WISCONSIN

CITY           SKY/WX    TMP DP  RH WIND       PRES   REMARKS
MILWAUKEE      MOSUNNY   68  41  37 SE10      30.11F
WAUKESHA       MOSUNNY   72  41  33 SW12      30.12F
MILWAUKEE/TIMM SUNNY     75  36  23 S14       30.11F
RACINE         SUNNY     63  37  38 S15       30.14F
BURLINGTON     SUNNY     74  41  30 SW14G20   30.12F
KENOSHA        MOSUNNY   74  40  29 S12       30.12F
FOND DU LAC    CLOUDY    67  44  43 S8        30.10S
SHEBOYGAN      PTSUNNY   61  41  47 SE5       30.11F
WEST BEND      PTSUNNY   72  36  26 S9        30.10S
JUNEAU         CLOUDY    69  36  30 SW8       30.12S
$$

LSZ147-162-202000-
LAKE SUPERIOR

STATION/POSITION TIME  TEMP    WIND        PRES    WAVE
                       AIR SEA DIR/SP/G            HT/PER
                 (UTC) (F)     (DEG/KT/KT) (MB)    (FT/S)
DEVILS ISLAND    1800   43     240/  6/  7 1017.9F
PORT WING        1840   40     340/  3/  5 1016.9F
SAXON HARBOR     1800             CALM     1017.6S
$$

LMZ867-665-643>646-202000-
LAKE MICHIGAN

STATION/POSITION TIME  TEMP    WIND        PRES    WAVE
                       AIR SEA DIR/SP/G            HT/PER
                 (UTC) (F)     (DEG/KT/KT) (MB)    (FT/S)
NORTHPORT PIER   1800   38     160/  9/ 15 1019.6F
SISTER BAY       1809   39     160/  5/  7   N/A
KEWAUNEE LAKESHO 1800   39     180/ 12/ 15 1021.1F
SHEBOYGAN LAKESH 1800   41     170/ 16/ 17 1020.8F
PORT WASHINGTON  1840   47     190/  7/ 11 1020.7F
MILWAUKEE LAKESH 1800   44     140/ 19/ 21   N/A
KENOSHA   LAKESH 1800   46     160/ 11/ 14   N/A
$$

TC  - TEMPERATURE IN CELSIUS
VSB - VISIBILITY IN STATUTE MILES
WCI - WIND CHILL INDEX
HX  - HEAT INDEX




USA.gov is the U.S. government's official web portal to all federal, state and local government web resources and services.